Tracking 22124 objects as of 25-Jan-2021
HD Live streaming from Space Station
objects crossing your sky now

STARLINK-1889

Track STARLINK-1889 now!
10-day predictions
STARLINK-1889 is classified as:


NORAD ID: 47172
Int'l Code: 2020-088BC
Perigee: 513.8 km
Apogee: 515.8 km
Inclination: 53.0 °
Period: 94.8 minutes
Semi major axis: 6885 km
RCS: Unknown
Launch date: November 25, 2020
Source: United States (US)
Launch site: AIR FORCE EASTERN TEST RANGE (AFETR)
aabbcc
Your satellite tracking list
Your tracking list is empty




NASA's NSSDC Master Catalog

Two Line Element Set (TLE):
1 47172U 20088BC  21025.25001157 -.00887574  00000-0 -44585-1 0  9998
2 47172  53.0368  58.2313 0001455  73.6807 138.6361 15.19392815 10302
Source of the keplerian elements: AFSPC